period_start,C,m1,H,J0,J1,J2,J3,J4,J5,JA,JB,JC,JD,JJ,JK,JN,#
2016-02-02 00:03:22,0.10,9.52,0.00,14.14,18.37,22.29,15.12,51.13,1018.08,2064.99,1356.08,1517.95,1715.12,600.04,615.34,44.47,0000 0000 0000 0000 000000
2016-02-02 00:08:24,0.10,9.52,0.00,14.14,18.36,22.30,15.08,51.19,1018.08,2064.99,1355.70,1517.31,1714.97,599.90,615.09,44.52,0000 0000 0000 0000 000000
2016-02-02 00:13:26,0.08,9.53,0.00,14.13,18.34,22.25,15.14,51.45,1018.09,2064.99,1355.01,1517.00,1714.24,600.32,615.40,44.58,0000 0000 0000 0000 000000
2016-02-02 00:18:27,0.08,9.53,0.00,14.12,18.32,22.24,15.10,51.42,1018.08,2064.99,1354.38,1516.86,1713.99,599.91,615.17,44.63,0000 0000 0000 0000 000000
2016-02-02 00:23:28,0.10,9.53,0.00,14.13,18.32,22.24,15.07,51.12,1018.08,2064.99,1353.99,1516.14,1713.47,600.27,615.60,44.68,0000 0000 0000 0000 000000
2016-02-02 00:28:30,0.08,9.54,0.00,14.11,18.31,22.24,15.05,51.09,1018.08,2064.99,1353.30,1516.00,1713.00,599.88,615.37,44.73,0000 0000 0000 0000 000000
2016-02-02 00:33:31,0.08,9.54,0.00,14.11,18.30,22.20,15.08,50.96,1018.08,2065.00,1352.80,1515.70,1712.65,600.19,615.44,44.78,0000 0000 0000 0000 000000
2016-02-02 00:38:32,0.11,9.55,0.00,14.10,18.29,22.22,15.06,50.96,1018.08,2065.00,1352.03,1515.04,1712.03,599.68,615.06,44.83,0000 0000 0000 0000 000000
2016-02-02 00:43:33,0.07,9.55,0.00,14.07,18.29,22.21,15.08,50.90,1018.08,2065.02,1351.39,1514.99,1711.86,599.86,615.33,44.88,0000 0000 0000 0000 000000
2016-02-02 00:48:35,0.09,9.56,0.00,14.07,18.27,22.17,15.19,51.08,1018.08,2065.02,1350.99,1514.49,1711.12,600.53,616.01,44.93,0000 0000 0000 0000 000000
2016-02-02 00:53:37,0.08,9.56,0.00,14.06,18.27,22.21,15.13,51.31,1018.09,2065.02,1350.31,1514.01,1710.97,600.14,615.57,44.98,0000 0000 0000 0000 000000
2016-02-02 00:58:38,0.04,9.57,0.00,14.00,18.25,22.19,15.16,51.27,1018.10,2065.03,1349.98,1513.93,1710.25,600.26,616.02,45.03,0000 0000 0000 0000 000000
2016-02-02 01:03:39,0.13,9.57,0.00,14.03,18.24,22.13,15.12,51.01,1018.08,2065.02,1349.25,1513.23,1709.97,599.89,615.48,45.08,0000 0000 0000 0000 000000
2016-02-02 01:08:41,0.09,9.58,0.00,14.06,18.24,22.19,15.13,50.88,1018.09,2065.03,1348.73,1513.00,1709.21,600.13,615.72,45.13,0000 0000 0000 0000 000000
2016-02-02 01:13:42,0.09,9.58,0.00,14.04,18.22,22.14,15.16,51.01,1018.08,2065.02,1348.01,1512.52,1708.92,599.95,615.44,45.18,0000 0000 0000 0000 000000
2016-02-02 01:18:43,0.13,9.59,0.00,13.99,18.22,22.17,15.14,51.12,1018.08,2065.03,1347.25,1512.01,1708.12,599.95,615.58,45.23,0000 0000 0000 0000 000000
2016-02-02 01:23:44,0.06,9.59,0.00,13.99,18.20,22.17,15.20,51.07,1018.08,2065.12,1346.76,1511.83,1707.96,600.27,616.00,45.28,0000 0000 0000 0000 000000
2016-02-02 01:28:46,0.15,9.60,0.00,13.97,18.19,22.11,15.14,50.98,1018.08,2065.13,1346.04,1511.11,1707.25,599.76,615.51,45.33,0000 0000 0000 0000 000000
2016-02-02 01:33:47,0.05,9.60,0.00,13.98,18.19,22.12,15.11,50.97,1018.08,2065.18,1345.63,1510.99,1706.99,599.79,615.37,45.38,0000 0000 0000 0000 000000
2016-02-02 01:38:48,0.14,9.61,0.00,13.97,18.17,22.13,15.14,51.02,1018.08,2065.33,1345.01,1510.58,1706.29,599.96,615.50,45.44,0000 0000 0000 0000 000000
2016-02-02 01:43:50,0.10,9.62,0.00,13.95,18.16,22.04,15.11,50.89,1018.08,2065.44,1344.34,1510.02,1705.99,599.72,615.48,45.49,0000 0000 0000 0000 000000
2016-02-02 01:48:51,0.06,9.62,0.00,13.93,18.14,22.07,15.10,50.88,1018.08,2065.62,1343.91,1509.97,1705.57,599.90,615.67,45.54,0000 0000 0000 0000 000000
2016-02-02 01:53:53,0.17,9.63,0.00,13.92,18.13,22.07,15.05,50.83,1018.08,2065.78,1343.10,1509.39,1705.03,599.89,615.67,45.59,0000 0000 0000 0000 000000
2016-02-02 01:58:54,0.03,9.63,0.00,13.89,18.12,22.03,15.09,50.96,1018.08,2065.92,1342.97,1509.01,1704.91,599.74,615.51,45.64,0000 0000 0000 0000 000000
2016-02-02 02:03:55,0.10,9.63,0.00,13.87,18.09,22.01,15.16,50.89,1018.08,2065.87,1342.21,1508.94,1704.13,599.77,615.82,45.69,0000 0000 0000 0000 000000
2016-02-02 02:08:57,0.09,9.64,0.00,13.86,18.09,22.03,15.07,50.79,1018.08,2065.95,1341.93,1508.30,1703.99,599.29,615.31,45.74,0000 0000 0000 0000 000000
2016-02-02 02:13:58,0.12,9.64,0.00,13.84,18.07,22.02,15.25,50.97,1018.08,2065.97,1341.12,1508.01,1703.65,600.63,616.51,45.79,0000 0000 0000 0000 000000
2016-02-02 02:18:59,0.01,9.65,0.00,13.85,18.06,22.05,15.09,50.82,1018.08,2065.98,1340.89,1507.88,1703.02,599.73,615.60,45.84,0000 0000 0000 0000 000000
2016-02-02 02:24:00,0.14,9.65,0.00,13.84,18.04,22.00,15.10,51.03,1018.08,2065.98,1340.11,1507.18,1702.84,599.99,616.01,45.89,0000 0000 0000 0000 000000
2016-02-02 02:29:01,0.04,9.66,0.00,13.84,18.03,21.97,15.16,50.96,1018.08,2065.99,1339.91,1507.00,1702.09,599.81,615.75,45.94,0000 0000 0000 0000 000000
2016-02-02 02:34:03,0.08,9.66,0.00,13.80,18.02,21.94,15.09,50.98,1018.07,2065.99,1339.11,1506.90,1701.98,600.28,616.32,45.99,0000 0000 0000 0000 000000
2016-02-02 02:39:04,0.12,9.66,0.00,13.79,18.00,21.93,15.12,50.95,1018.08,2065.99,1338.77,1506.20,1701.49,599.84,615.87,46.04,0000 0000 0000 0000 000000
2016-02-02 02:44:06,0.06,9.67,0.00,13.80,17.99,21.91,15.20,50.93,1018.07,2065.99,1338.03,1506.00,1701.00,600.27,616.00,46.09,0000 0000 0000 0000 000000
2016-02-02 02:49:07,0.10,9.67,0.00,13.79,17.98,21.93,15.13,51.17,1018.02,2065.99,1337.55,1505.77,1700.73,600.17,616.13,46.14,0000 0000 0000 0000 000000
2016-02-02 02:54:08,0.10,9.68,0.00,13.79,17.96,21.91,15.15,51.47,1018.05,2066.01,1336.89,1505.05,1700.05,600.23,616.20,46.19,0000 0000 0000 0000 000000
2016-02-02 02:59:09,0.07,9.68,0.00,13.78,17.94,21.90,15.14,51.35,1018.07,2066.01,1336.09,1504.97,1699.85,599.98,616.06,46.24,0000 0000 0000 0000 000000
2016-02-02 03:04:11,0.16,9.69,0.00,13.76,17.94,21.89,15.14,51.47,1018.08,2066.02,1335.51,1504.26,1699.07,600.01,616.11,46.29,0000 0000 0000 0000 000000
2016-02-02 03:09:12,0.03,9.69,0.00,13.75,17.92,21.89,15.10,51.37,1018.07,2066.03,1334.99,1504.01,1698.88,600.35,616.50,46.34,0000 0000 0000 0000 000000
2016-02-02 03:14:14,0.10,9.70,0.00,13.76,17.92,21.92,15.11,51.38,1018.08,2066.03,1334.34,1503.89,1698.14,600.19,616.24,46.40,0000 0000 0000 0000 000000
2016-02-02 03:19:15,0.07,9.70,0.00,13.74,17.92,21.86,15.17,51.60,1018.08,2066.05,1333.95,1503.12,1697.97,600.04,616.25,46.45,0000 0000 0000 0000 000000
2016-02-02 03:24:16,0.13,9.71,0.00,13.72,17.92,21.87,15.12,51.49,1018.08,2066.16,1333.17,1502.98,1697.21,599.93,616.20,46.50,0000 0000 0000 0000 000000
2016-02-02 03:29:18,0.06,9.71,0.00,13.72,17.91,21.86,15.22,51.48,1018.06,2066.10,1332.98,1502.38,1697.00,600.23,616.52,46.55,0000 0000 0000 0000 000000
2016-02-02 03:34:19,0.11,9.72,0.00,13.75,17.91,21.90,15.23,51.16,1017.95,2066.11,1332.34,1502.01,1696.55,599.93,616.02,46.60,0000 0000 0000 0000 000000
2016-02-02 03:39:20,0.07,9.72,0.00,13.77,17.91,21.83,15.13,51.24,1018.00,2066.22,1331.80,1501.83,1696.00,600.31,616.37,46.65,0000 0000 0000 0000 000000
2016-02-02 03:44:22,0.16,9.73,0.00,13.75,17.90,21.89,15.14,51.24,1018.05,2066.36,1331.05,1501.11,1695.57,600.03,616.15,46.70,0000 0000 0000 0000 000000
2016-02-02 03:49:23,0.10,9.73,0.00,13.75,17.89,21.86,15.11,51.24,1018.08,2066.56,1330.64,1500.98,1695.03,599.83,615.97,46.75,0000 0000 0000 0000 000000
2016-02-02 03:54:24,0.12,9.74,0.00,13.72,17.89,21.89,15.18,51.15,1018.08,2066.71,1330.01,1500.54,1694.68,599.88,616.09,46.80,0000 0000 0000 0000 000000
2016-02-02 03:59:26,0.11,9.75,0.00,13.69,17.89,21.86,15.11,51.23,1018.08,2066.79,1329.38,1500.01,1694.02,599.68,615.95,46.85,0000 0000 0000 0000 000000
2016-02-02 04:04:27,0.04,9.75,0.00,13.68,17.88,21.83,15.09,51.23,1018.08,2066.85,1328.98,1499.94,1693.76,600.01,616.38,46.90,0000 0000 0000 0000 000000
2016-02-02 04:09:29,0.17,9.76,0.00,13.69,17.87,21.83,15.16,51.23,1018.07,2066.87,1328.17,1499.17,1693.03,600.13,616.44,46.95,0000 0000 0000 0000 000000
2016-02-02 04:14:30,0.08,9.76,0.00,13.67,17.87,21.82,15.19,51.37,1018.04,2066.91,1327.65,1498.96,1692.63,600.42,616.84,47.00,0000 0000 0000 0000 000000
2016-02-02 04:19:31,0.11,9.77,0.00,13.64,17.86,21.78,15.21,51.38,1018.05,2066.92,1327.00,1498.23,1692.02,600.11,616.38,47.05,0000 0000 0000 0000 000000
2016-02-02 04:24:33,0.10,9.77,0.00,13.67,17.84,21.78,15.14,51.14,1018.07,2066.96,1326.29,1498.00,1691.73,600.02,616.34,47.10,0000 0000 0000 0000 000000
2016-02-02 04:29:34,0.08,9.78,0.00,13.68,17.84,21.76,15.15,51.24,1018.08,2066.96,1325.85,1497.68,1691.04,599.93,616.37,47.15,0000 0000 0000 0000 000000
2016-02-02 04:34:35,0.11,9.78,0.00,13.67,17.84,21.82,15.06,51.28,1018.08,2066.97,1325.06,1497.03,1690.77,600.14,616.60,47.20,0000 0000 0000 0000 000000
2016-02-02 04:39:36,0.09,9.79,0.00,13.66,17.83,21.77,15.05,51.22,1018.08,2066.97,1324.56,1496.91,1690.04,599.93,616.31,47.25,0000 0000 0000 0000 000000
2016-02-02 04:44:37,0.09,9.79,0.00,13.64,17.82,21.79,15.07,51.18,1018.08,2066.98,1324.03,1496.26,1689.84,599.85,616.14,47.31,0000 0000 0000 0000 000000
2016-02-02 04:49:39,0.09,9.80,0.00,13.65,17.82,21.74,15.04,51.13,1018.08,2066.98,1323.57,1496.00,1689.08,600.08,616.55,47.36,0000 0000 0000 0000 000000
2016-02-02 04:54:40,0.04,9.80,0.00,13.63,17.82,21.74,15.15,51.13,1018.08,2066.98,1322.99,1495.81,1688.96,600.10,616.32,47.41,0000 0000 0000 0000 000000
2016-02-02 04:59:41,0.16,9.81,0.00,13.63,17.82,21.75,15.14,51.37,1018.08,2066.97,1322.18,1495.06,1688.17,600.26,616.66,47.46,0000 0000 0000 0000 000000
2016-02-02 05:04:43,0.03,9.81,0.00,13.62,17.82,21.74,15.18,51.28,1018.08,2066.97,1321.78,1494.97,1687.98,600.37,616.80,47.51,0000 0000 0000 0000 000000
2016-02-02 05:09:45,0.14,9.82,0.00,13.57,17.80,21.76,15.18,51.66,1018.08,2066.99,1321.04,1494.52,1687.45,600.10,616.66,47.56,0000 0000 0000 0000 000000
2016-02-02 05:14:46,0.08,9.82,0.00,13.57,17.79,21.74,15.12,51.64,1018.08,2066.98,1320.46,1494.01,1686.99,599.91,616.52,47.61,0000 0000 0000 0000 000000
2016-02-02 05:19:47,0.09,9.83,0.00,13.57,17.79,21.75,15.21,51.64,1018.08,2066.99,1319.84,1493.82,1686.49,600.05,616.55,47.66,0000 0000 0000 0000 000000
2016-02-02 05:24:48,0.11,9.84,0.00,13.56,17.79,21.70,15.18,51.55,1018.09,2066.99,1319.06,1493.09,1686.00,599.95,616.51,47.71,0000 0000 0000 0000 000000
2016-02-02 05:29:49,0.06,9.84,0.00,13.57,17.77,21.75,15.20,51.63,1018.09,2066.99,1318.76,1492.99,1685.66,599.77,616.28,47.76,0000 0000 0000 0000 000000
2016-02-02 05:34:51,0.06,9.84,0.00,13.60,17.77,21.75,15.19,51.52,1018.08,2066.99,1318.23,1492.88,1685.06,600.33,616.93,47.81,0000 0000 0000 0000 000000
2016-02-02 05:39:52,0.06,9.85,0.00,13.58,17.77,21.72,15.14,51.39,1018.08,2066.99,1318.00,1492.23,1684.98,600.32,616.79,47.86,0000 0000 0000 0000 000000
2016-02-02 05:44:54,0.04,9.85,0.00,13.60,17.77,21.70,15.11,51.35,1018.09,2066.99,1317.92,1492.01,1684.53,599.89,616.43,47.91,0000 0000 0000 0000 000000
2016-02-02 05:49:55,0.08,9.85,0.00,13.61,17.76,21.72,15.18,51.41,1018.09,2066.99,1317.18,1491.91,1684.01,600.25,616.69,47.96,0000 0000 0000 0000 000000
2016-02-02 05:54:56,0.12,9.86,0.00,13.58,17.74,21.67,15.08,51.39,1018.09,2066.99,1316.76,1491.17,1683.62,599.74,616.17,48.01,0000 0000 0000 0000 000000
2016-02-02 05:59:58,0.07,9.86,0.00,13.66,17.74,21.66,15.16,51.16,1018.08,2066.99,1316.05,1490.96,1683.02,599.99,616.25,48.06,0000 0000 0000 0000 000000
2016-02-02 06:04:59,0.19,9.87,0.00,13.69,17.72,21.62,15.02,51.16,1018.08,2066.99,1315.26,1490.18,1682.22,600.18,616.39,48.11,0000 0000 0000 0000 000000
2016-02-02 06:10:01,0.11,9.87,0.00,13.67,17.72,21.65,15.18,51.32,1018.08,2066.99,1314.44,1489.88,1681.77,600.05,616.29,48.17,0000 0000 0000 0000 000000
2016-02-02 06:15:02,0.09,9.88,0.00,13.65,17.72,21.65,15.12,51.06,1018.09,2066.99,1314.00,1489.13,1681.06,599.85,616.25,48.22,0000 0000 0000 0000 000000
2016-02-02 06:20:03,0.08,9.89,0.00,13.67,17.69,21.63,15.15,51.33,1018.09,2066.99,1313.23,1488.99,1680.84,600.15,616.41,48.27,0000 0000 0000 0000 000000
2016-02-02 06:25:05,0.10,9.89,0.00,13.69,17.69,21.66,15.14,51.23,1018.08,2066.99,1312.86,1488.44,1680.08,599.94,616.15,48.32,0000 0000 0000 0000 000000
2016-02-02 06:30:06,0.07,9.90,0.00,13.68,17.69,21.63,15.18,51.12,1018.08,2066.99,1312.10,1488.01,1679.93,600.03,616.48,48.37,0000 0000 0000 0000 000000
2016-02-02 06:35:07,0.08,9.90,0.00,13.65,17.67,21.66,15.08,50.98,1018.08,2066.99,1311.71,1487.94,1679.14,599.62,615.92,48.42,0000 0000 0000 0000 000000
2016-02-02 06:40:08,0.11,9.91,0.00,13.63,17.67,21.63,15.08,50.97,1018.09,2067.00,1311.02,1487.27,1678.98,599.76,616.20,48.47,0000 0000 0000 0000 000000
2016-02-02 06:45:09,0.10,9.91,0.00,13.64,17.66,21.59,15.16,51.01,1018.09,2067.00,1310.54,1487.00,1678.44,599.79,616.05,48.52,0000 0000 0000 0000 000000
2016-02-02 06:50:11,0.02,9.91,0.00,13.65,17.65,21.61,15.08,50.99,1018.09,2067.02,1310.01,1486.92,1678.02,600.08,616.42,48.57,0000 0000 0000 0000 000000
2016-02-02 06:55:12,0.10,9.92,0.00,13.65,17.63,21.63,15.15,51.30,1018.08,2067.01,1309.77,1486.16,1677.82,600.15,616.48,48.62,0000 0000 0000 0000 000000
2016-02-02 07:00:13,0.09,9.92,0.00,13.66,17.62,21.59,14.98,50.76,1018.09,2067.02,1309.05,1486.00,1677.09,599.58,615.90,48.67,0000 0000 0000 0000 000000
2016-02-02 07:05:15,0.02,9.92,0.00,13.67,17.62,21.57,15.10,50.74,1018.08,2067.03,1308.93,1485.90,1676.99,599.74,615.89,48.72,0000 0000 0000 0000 000000
2016-02-02 07:10:16,0.17,9.93,0.00,13.64,17.60,21.60,15.16,50.75,1018.08,2067.05,1308.13,1485.15,1676.39,599.98,616.41,48.77,0000 0000 0000 0000 000000
2016-02-02 07:15:17,0.02,9.93,0.00,13.64,17.59,21.57,15.07,50.67,1018.08,2067.08,1307.96,1485.00,1676.00,599.71,616.12,48.82,0000 0000 0000 0000 000000
2016-02-02 07:20:18,0.11,9.94,0.00,13.63,17.57,21.58,15.13,50.61,1018.08,2067.11,1307.22,1484.80,1675.77,600.26,616.46,48.87,0000 0000 0000 0000 000000
2016-02-02 07:25:19,0.12,9.94,0.00,13.63,17.55,21.65,15.06,50.61,1018.08,2067.27,1306.95,1484.10,1675.07,599.92,616.25,48.92,0000 0000 0000 0000 000000
2016-02-02 07:30:21,0.10,9.95,0.00,13.64,17.53,21.72,15.11,50.65,1018.08,2067.55,1306.15,1484.00,1674.99,600.33,616.69,48.97,0000 0000 0000 0000 000000
2016-02-02 07:35:22,0.07,9.95,0.00,13.63,17.52,21.63,15.05,50.67,1018.08,2067.69,1305.97,1483.95,1674.51,599.72,616.14,49.02,0000 0000 0000 0000 000000
2016-02-02 07:40:23,0.15,9.96,0.00,13.64,17.50,21.61,15.12,50.52,1018.08,2067.83,1305.25,1483.29,1674.03,600.00,616.37,49.07,0000 0000 0000 0000 000000
2016-02-02 07:45:24,0.02,9.96,0.00,13.64,17.49,21.57,15.14,50.70,1018.08,2067.89,1304.99,1483.01,1673.97,599.86,616.23,49.13,0000 0000 0000 0000 000000
2016-02-02 07:50:26,0.11,9.97,0.00,13.64,17.47,21.60,15.07,50.70,1018.09,2067.97,1304.50,1482.98,1673.37,599.95,616.23,49.18,0000 0000 0000 0000 000000
2016-02-02 07:55:27,0.09,9.97,0.00,13.62,17.46,21.69,15.07,50.59,1018.09,2067.96,1303.97,1482.33,1673.00,599.51,615.88,49.23,0000 0000 0000 0000 000000
2016-02-02 08:00:28,0.09,9.98,0.00,13.62,17.44,21.70,15.22,50.80,1018.09,2067.99,1303.23,1482.00,1672.80,600.28,616.77,49.28,0000 0000 0000 0000 000000
2016-02-02 08:05:29,0.05,9.98,0.00,13.62,17.43,21.62,15.11,51.08,1018.09,2067.98,1302.82,1481.94,1672.06,600.13,616.66,49.33,0000 0000 0000 0000 000000
2016-02-02 08:10:30,0.12,9.99,0.00,13.61,17.42,21.56,15.10,51.27,1018.08,2067.99,1302.07,1481.31,1671.98,599.98,616.37,49.38,0000 0000 0000 0000 000000
2016-02-02 08:15:32,0.05,9.99,0.00,13.60,17.40,21.65,15.07,50.92,1018.08,2067.99,1301.98,1481.01,1671.40,599.70,616.14,49.43,0000 0000 0000 0000 000000
2016-02-02 08:20:33,0.05,9.99,0.00,13.62,17.39,21.53,15.05,50.63,1018.08,2067.99,1301.61,1480.99,1671.01,599.61,616.14,49.48,0000 0000 0000 0000 000000
2016-02-02 08:25:35,0.10,10.00,0.00,13.61,17.39,21.55,15.06,50.60,1018.08,2067.99,1301.01,1480.48,1670.81,599.75,616.36,49.53,0000 0000 0000 0000 000000
2016-02-02 08:30:36,0.11,10.00,0.00,13.60,17.38,21.55,15.17,50.66,1018.08,2067.99,1300.53,1480.04,1670.08,600.01,616.56,49.58,0000 0000 0000 0000 000000
2016-02-02 08:35:38,0.02,10.01,0.00,13.57,17.37,21.47,15.06,50.66,1018.08,2067.99,1300.01,1479.99,1669.99,599.90,616.48,49.63,0000 0000 0000 0000 000000
2016-02-02 08:40:39,0.14,10.01,0.00,13.57,17.37,21.59,15.20,50.73,1018.09,2067.99,1299.49,1479.62,1669.43,599.92,616.49,49.68,0000 0000 0000 0000 000000
2016-02-02 08:45:40,0.07,10.02,0.00,13.58,17.36,21.40,15.13,50.78,1018.10,2068.00,1298.90,1479.05,1669.01,599.60,616.12,49.73,0000 0000 0000 0000 000000
2016-02-02 08:50:42,0.09,10.02,0.00,13.56,17.34,21.57,15.09,50.73,1018.09,2068.00,1298.10,1478.92,1668.76,599.16,615.74,49.78,0000 0000 0000 0000 000000
2016-02-02 08:55:43,0.09,10.03,0.00,13.57,17.34,21.55,15.15,50.71,1018.09,2068.00,1297.98,1478.29,1668.05,600.01,616.54,49.83,0000 0000 0000 0000 000000
2016-02-02 09:00:44,0.08,10.03,0.00,13.55,17.34,21.53,15.18,50.63,1018.09,2068.00,1297.31,1478.00,1667.94,600.27,616.76,49.88,0000 0000 0000 0000 000000
2016-02-02 09:05:46,0.04,10.03,0.00,13.57,17.33,21.47,15.19,50.85,1018.08,2068.01,1296.99,1477.96,1667.22,599.97,616.64,49.93,0000 0000 0000 0000 000000
2016-02-02 09:10:47,0.13,10.04,0.00,13.56,17.32,21.40,15.16,50.69,1018.08,2068.01,1296.42,1477.33,1667.00,600.00,616.55,49.98,0000 0000 0000 0000 000000
2016-02-02 09:15:48,0.06,10.04,0.00,13.55,17.32,21.48,15.19,50.85,1018.08,2068.01,1295.87,1477.01,1666.62,600.50,617.15,50.04,0000 0000 0000 0000 000000
2016-02-02 09:20:49,0.09,10.05,0.00,13.55,17.32,21.46,15.11,50.92,1018.08,2068.02,1295.11,1476.83,1666.04,599.70,616.18,50.09,0000 0000 0000 0000 000000
2016-02-02 09:25:50,0.10,10.05,0.00,13.55,17.32,21.39,15.09,51.36,1018.08,2068.02,1294.74,1476.11,1665.89,600.24,616.91,50.14,0000 0000 0000 0000 000000
2016-02-02 09:30:52,0.09,10.06,0.00,13.54,17.30,21.42,15.15,51.12,1018.08,2068.03,1293.96,1475.98,1665.12,600.00,616.67,50.19,0000 0000 0000 0000 000000
2016-02-02 09:35:53,0.15,10.06,0.00,13.54,17.29,21.37,15.18,51.40,1018.08,2068.04,1293.15,1475.35,1664.95,599.86,616.44,50.24,0000 0000 0000 0000 000000
2016-02-02 09:40:54,0.08,10.07,0.00,13.55,17.29,21.40,15.19,51.55,1018.08,2068.09,1292.81,1475.00,1664.21,600.06,616.77,50.29,0000 0000 0000 0000 000000
2016-02-02 09:45:56,0.05,10.07,0.00,13.54,17.29,21.40,15.12,51.42,1018.08,2068.11,1292.06,1474.97,1664.00,600.04,616.70,50.34,0000 0000 0000 0000 000000
2016-02-02 09:50:57,0.09,10.08,0.00,13.54,17.29,21.39,15.16,51.43,1018.08,2068.14,1291.99,1474.40,1663.73,600.12,616.75,50.39,0000 0000 0000 0000 000000
2016-02-02 09:55:58,0.10,10.08,0.00,13.52,17.29,21.33,15.07,51.15,1018.08,2068.13,1291.31,1474.01,1663.03,600.13,616.71,50.44,0000 0000 0000 0000 000000
2016-02-02 10:01:00,0.04,10.09,0.00,13.51,17.29,21.41,15.10,51.27,1018.08,2068.19,1290.95,1473.85,1662.95,599.78,616.46,50.49,0000 0000 0000 0000 000000
2016-02-02 10:06:01,0.16,10.09,0.00,13.50,17.29,21.37,15.14,51.32,1018.08,2068.16,1290.25,1473.11,1662.21,600.04,616.79,50.54,0000 0000 0000 0000 000000
2016-02-02 10:11:02,0.01,10.10,0.00,13.48,17.29,21.45,15.13,51.34,1018.08,2068.12,1289.97,1472.99,1661.99,599.85,616.60,50.59,0000 0000 0000 0000 000000
2016-02-02 10:16:04,0.15,10.10,0.00,13.48,17.30,21.33,15.21,51.13,1018.11,2068.10,1289.27,1472.67,1661.41,600.31,617.04,50.64,0000 0000 0000 0000 000000
2016-02-02 10:21:05,0.08,10.10,0.00,13.49,17.30,21.40,15.06,51.10,1018.11,2068.07,1288.74,1472.04,1660.98,599.71,616.38,50.69,0000 0000 0000 0000 000000
2016-02-02 10:26:06,0.10,10.11,0.00,13.49,17.30,21.48,15.22,51.22,1018.11,2068.05,1288.00,1471.88,1660.30,599.96,616.75,50.74,0000 0000 0000 0000 000000
2016-02-02 10:31:07,0.13,10.12,0.00,13.50,17.30,21.41,15.14,51.11,1018.12,2068.05,1287.29,1471.12,1659.98,600.20,616.87,50.79,0000 0000 0000 0000 000000
2016-02-02 10:36:09,0.10,10.12,0.00,13.52,17.30,21.40,15.11,51.34,1018.12,2068.08,1286.66,1470.99,1659.36,600.05,616.80,50.84,0000 0000 0000 0000 000000
2016-02-02 10:41:10,0.11,10.13,0.00,13.50,17.30,21.35,15.15,51.48,1018.09,2068.23,1286.00,1470.41,1658.99,600.13,616.80,50.89,0000 0000 0000 0000 000000
2016-02-02 10:46:11,0.13,10.13,0.00,13.48,17.30,21.41,15.13,51.33,1018.10,2068.30,1285.35,1470.01,1658.35,599.79,616.53,50.94,0000 0000 0000 0000 000000
2016-02-02 10:51:12,0.02,10.14,0.00,13.49,17.31,21.37,15.22,51.41,1018.14,2068.12,1284.99,1469.78,1658.00,600.23,616.98,51.00,0000 0000 0000 0000 000000
2016-02-02 10:56:14,0.17,10.14,0.00,13.50,17.31,21.45,15.11,51.31,1018.08,2068.11,1284.24,1469.06,1657.35,600.02,616.63,51.05,0000 0000 0000 0000 000000
2016-02-02 11:01:15,0.07,10.15,0.00,13.51,17.32,21.40,15.15,51.56,1018.08,2068.18,1283.75,1468.94,1656.99,600.01,616.67,51.10,0000 0000 0000 0000 000000
2016-02-02 11:06:16,0.14,10.15,0.00,13.52,17.32,21.40,15.19,51.63,1018.09,2068.17,1283.06,1468.25,1656.39,600.34,617.00,51.15,0000 0000 0000 0000 000000
2016-02-02 11:11:18,0.03,10.16,0.00,13.50,17.32,21.38,15.10,51.40,1018.08,2068.20,1282.96,1468.00,1656.00,599.80,616.45,51.20,0000 0000 0000 0000 000000
2016-02-02 11:16:19,0.10,10.16,0.00,13.49,17.32,21.34,15.11,51.26,1018.08,2068.20,1282.33,1467.86,1655.62,600.11,616.91,51.25,0000 0000 0000 0000 000000
2016-02-02 11:21:20,0.08,10.17,0.00,13.48,17.32,21.43,15.21,51.30,1018.07,2068.05,1281.82,1467.08,1655.01,600.10,616.79,51.30,0000 0000 0000 0000 000000
2016-02-02 11:26:21,0.10,10.17,0.00,13.48,17.34,21.38,15.13,51.18,1018.08,2068.05,1281.05,1466.93,1654.53,599.89,616.66,51.35,0000 0000 0000 0000 000000
2016-02-02 11:31:23,0.15,10.18,0.00,13.48,17.34,21.44,15.06,51.30,1018.06,2068.03,1280.30,1466.12,1653.99,599.80,616.49,51.40,0000 0000 0000 0000 000000
2016-02-02 11:36:24,0.09,10.18,0.00,13.46,17.34,21.43,15.17,51.42,1018.06,2068.04,1279.76,1465.96,1653.31,600.32,617.16,51.45,0000 0000 0000 0000 000000
2016-02-02 11:41:25,0.12,10.19,0.00,13.48,17.34,21.43,15.14,51.56,1017.93,2068.06,1279.03,1465.25,1652.98,600.15,616.75,51.50,0000 0000 0000 0000 000000
2016-02-02 11:46:27,0.09,10.19,0.00,13.50,17.34,21.38,15.18,51.47,1017.84,2068.07,1278.63,1465.00,1652.25,600.16,616.70,51.55,0000 0000 0000 0000 000000
2016-02-02 11:51:28,0.09,10.20,0.00,13.50,17.34,21.39,15.12,51.44,1017.70,2068.08,1278.01,1464.52,1651.98,600.04,616.44,51.60,0000 0000 0000 0000 000000
2016-02-02 11:56:30,0.12,10.21,0.00,13.51,17.34,21.45,15.08,51.38,1017.61,2068.07,1277.49,1464.01,1651.31,600.09,616.50,51.65,0000 0000 0000 0000 000000
2016-02-02 12:01:31,0.03,10.21,0.00,13.49,17.34,21.50,15.17,51.48,1017.60,2068.04,1276.99,1463.90,1650.99,599.83,616.33,51.70,0000 0000 0000 0000 000000
2016-02-02 12:06:32,0.18,10.22,0.00,13.49,17.34,21.42,15.13,51.43,1017.66,2068.05,1276.25,1463.12,1650.32,600.01,616.44,51.75,0000 0000 0000 0000 000000
2016-02-02 12:11:33,0.01,10.22,0.00,13.49,17.34,21.42,15.21,51.42,1017.62,2068.04,1275.95,1463.00,1649.99,600.37,616.79,51.80,0000 0000 0000 0000 000000
2016-02-02 12:16:34,0.15,10.22,0.00,13.51,17.34,21.47,15.23,51.37,1017.66,2068.05,1275.30,1462.57,1649.52,600.35,616.97,51.85,0000 0000 0000 0000 000000
2016-02-02 12:21:36,0.04,10.23,0.00,13.49,17.34,21.47,15.20,51.34,1017.59,2068.03,1274.96,1462.01,1649.01,600.46,616.95,51.91,0000 0000 0000 0000 000000
2016-02-02 12:26:37,0.13,10.24,0.00,13.49,17.34,21.43,15.14,51.27,1017.59,2068.03,1274.15,1461.85,1648.62,600.12,616.61,51.96,0000 0000 0000 0000 000000
2016-02-02 12:31:38,0.09,10.24,0.00,13.50,17.34,21.46,15.17,51.55,1017.59,2068.06,1273.86,1461.12,1648.01,600.10,616.61,52.01,0000 0000 0000 0000 000000
2016-02-02 12:36:40,0.10,10.25,0.00,13.49,17.34,21.41,15.14,51.56,1017.59,2068.05,1273.05,1460.97,1647.66,600.37,616.75,52.06,0000 0000 0000 0000 000000
2016-02-02 12:41:41,0.16,10.25,0.00,13.51,17.34,21.39,15.27,51.75,1017.59,2068.07,1272.38,1460.28,1647.02,600.26,616.65,52.11,0000 0000 0000 0000 000000
2016-02-02 12:46:42,0.04,10.26,0.00,13.51,17.34,21.40,15.11,51.36,1017.59,2068.06,1272.00,1460.01,1646.72,599.91,616.26,52.16,0000 0000 0000 0000 000000
2016-02-02 12:51:44,0.14,10.26,0.00,13.51,17.34,21.40,15.21,51.52,1017.59,2068.04,1271.39,1459.66,1646.03,600.06,616.51,52.21,0000 0000 0000 0000 000000
2016-02-02 12:56:45,0.06,10.27,0.00,13.50,17.34,21.41,15.14,51.38,1017.59,2068.04,1270.96,1459.03,1645.71,600.15,616.45,52.26,0000 0000 0000 0000 000000